This is the latest recevied weather packets stored in our database for station/object DB0HOL-4. If no packets are shown the sender has not sent any weather packets the latest 10 day(s).
| Time | Temp. | Humidity | Pressure | Rain* | Wind** | Luminosity | Snow |
|---|---|---|---|---|---|---|---|
| 1778167597 | 6.11° C | 99% | 1014.9 hPa | 0 mm | - | 346 W/m² | - |
| 1778165797 | 6.11° C | 99% | 1014.5 hPa | 0 mm | - | 147 W/m² | - |
| 1778163997 | 6.11° C | 99% | 1014.5 hPa | 0 mm | - | 615 W/m² | - |
| 1778162199 | 6.11° C | 99% | 1014.5 hPa | 0 mm | - | 101 W/m² | - |
| 1778160397 | 6.11° C | 99% | 1014.2 hPa | 0 mm | - | 741 W/m² | - |
| 1778158597 | 6.11° C | 99% | 1013.8 hPa | 0 mm | - | 893 W/m² | - |
| 1778156797 | 5.56° C | 99% | 1013.5 hPa | 0 mm | - | 850 W/m² | - |
| 1778154997 | 5.56° C | 99% | 1013.2 hPa | 0 mm | - | 949 W/m² | - |
| 1778153197 | 5.56° C | 99% | 1013.5 hPa | 0 mm | - | 646 W/m² | - |
| 1778151397 | 5.56° C | 99% | 1013.2 hPa | 0 mm | - | 724 W/m² | - |
| 1778149597 | 5.56° C | 99% | 1012.8 hPa | 0 mm | - | 581 W/m² | - |
| 1778147797 | 5.56° C | 99% | 1012.5 hPa | 0 mm | - | 554 W/m² | - |
| 1778145997 | 5.56° C | 99% | 1012.1 hPa | 0 mm | - | 568 W/m² | - |
| 1778144197 | 5.56° C | 99% | 1011.8 hPa | 0 mm | - | 407 W/m² | - |
| 1778142397 | 5.56° C | 99% | 1011.5 hPa | 0 mm | - | 355 W/m² | - |
| 1778140597 | 5.56° C | 99% | 1011.1 hPa | 0 mm | - | 242 W/m² | - |
| 1778138797 | 5.56° C | 99% | 1010.8 hPa | 0 mm | - | 212 W/m² | - |
| 1778136997 | 5.56° C | 99% | 1010.4 hPa | 0 mm | - | 181 W/m² | - |
| 1778135197 | 5.56° C | 99% | 1010.1 hPa | 0 mm | - | 125 W/m² | - |
| 1778133397 | 6.11° C | 99% | 1009.8 hPa | 0 mm | - | 91 W/m² | - |
| 1778131598 | 6.11° C | 99% | 1009.4 hPa | 0 mm | - | 17 W/m² | - |
| 1778129797 | 6.11° C | 99% | 1009.1 hPa | 0 mm | - | 0 W/m² | - |
| 1778127997 | 6.11° C | 99% | 1008.8 hPa | 0 mm | - | 0 W/m² | - |
| 1778126196 | 6.11° C | 99% | 1008.8 hPa | 0 mm | - | 0 W/m² | - |
| 1778124397 | 6.11° C | 99% | 1008.8 hPa | 0 mm | - | 0 W/m² | - |
* Rain latest hour (hover to see other rain measurements)
** Current wind speed in m/s (hover to see current wind gust speed)